Saginaw Browne, MI

12:00 AM EDT on April 24, 2017 (GMT -0400)
Saginaw County-Browne

Weather History for KHYX - January, 2013

Change the Weather History Date:

Monday, January 28, 2013

  Actual Average (KMBS) Record (KMBS)
Temperature  
Mean Temperature 34 °F -  
Max Temperature 41 °F 27 °F 43 °F (2002)
Min Temperature 28 °F 14 °F -5 °F (2014)
Degree Days  
Heating Degree Days 30    
Moisture  
Dew Point 34 °F    
Average Humidity 99    
Maximum Humidity 100    
Minimum Humidity 93    
Precipitation  
Precipitation 0.00 in - - ()
Sea Level Pressure  
Sea Level Pressure 29.91 in    
Wind  
Wind Speed 9 mph (SSW)    
Max Wind Speed 15 mph    
Max Gust Speed 18 mph    
Visibility 6 miles    
Events Fog , Rain , Snow    
Averages and records for this station are not official NWS values.
T = Trace of Precipitation, MM = Missing Value Source: NWS Daily Summary

Daily Weather History Graph

Daily Weather History Graph

Search for Another Location

Airport or City:

Trip Planner

Search our weather history database for the weather conditions in past years. The results will help you decide how hot, cold, wet, or windy it might be!

Date:

Astronomy

Jan. 28, 2013 Rise Set
Actual Time 7:55 AM EST 5:42 PM EST
Civil Twilight 7:24 AM EST 6:12 PM EST
Nautical Twilight 6:50 AM EST 6:47 PM EST
Astronomical Twilight 6:16 AM EST 7:20 PM EST
Moon 7:40 PM EST (1/28) 8:16 AM EST (1/28)
Length of Visible Light 10h 48m
Length of Day
9h 46m
Full, 98% of the Moon is Illuminated
Jan 28
Full
Feb 3
Last Quarter
Feb 10
New
Feb 17
First Quarter
Feb 25
Full

Hourly Weather History & Observations

Time (EST) Temp. Windchill Dew Point Humidity Pressure Visibility Wind Dir Wind Speed Gust Speed Precip Events Conditions
12:12 AM 28.4 °F 18.5 °F 28.4 °F 100% 30.10 in 4.0 mi SE 11.5 mph - N/A Snow Light Snow
12:32 AM 28.4 °F 18.5 °F 28.4 °F 100% 30.09 in 7.0 mi SE 11.5 mph - N/A   Overcast
1:12 AM 30.2 °F 19.3 °F 30.2 °F 100% 30.05 in 7.0 mi SE 15.0 mph - N/A   Overcast
1:32 AM 30.2 °F 21.3 °F 30.2 °F 100% 30.04 in 7.0 mi SSE 10.4 mph - N/A   Overcast
1:52 AM 30.2 °F 20.8 °F 30.2 °F 100% 30.02 in 7.0 mi SSE 11.5 mph - N/A Snow Light Snow
2:12 AM 30.2 °F 21.3 °F 30.2 °F 100% 30.01 in 7.0 mi SSE 10.4 mph - N/A   Overcast
2:33 AM 32.0 °F 23.6 °F 30.2 °F 93% 30.00 in 5.0 mi SSE 10.4 mph - N/A   Overcast
2:53 AM 32.0 °F 24.2 °F 32.0 °F 100% 30.00 in 3.0 mi South 9.2 mph - N/A   Overcast
3:13 AM 32.0 °F 24.2 °F 32.0 °F 100% 29.99 in 2.5 mi SSE 9.2 mph - N/A   Overcast
3:33 AM 32.0 °F 24.2 °F 32.0 °F 100% 29.97 in 2.5 mi South 9.2 mph - N/A   Overcast
3:53 AM 32.0 °F 24.8 °F 32.0 °F 100% 29.96 in 2.5 mi SSE 8.1 mph - N/A   Overcast
4:13 AM 32.0 °F 24.8 °F 32.0 °F 100% 29.94 in 2.5 mi South 8.1 mph - N/A   Overcast
4:33 AM 32.0 °F 24.8 °F 32.0 °F 100% 29.93 in 2.5 mi SSE 8.1 mph - N/A   Overcast
4:53 AM 32.0 °F 24.8 °F 32.0 °F 100% 29.93 in 3.0 mi South 8.1 mph - N/A   Overcast
5:13 AM 32.0 °F 25.6 °F 32.0 °F 100% 29.92 in 2.5 mi South 6.9 mph - N/A   Overcast
5:33 AM 32.0 °F 26.4 °F 32.0 °F 100% 29.91 in 2.0 mi South 5.8 mph - N/A   Overcast
5:54 AM 32.0 °F 26.4 °F 32.0 °F 100% 29.90 in 2.5 mi SSE 5.8 mph - N/A   Overcast
6:14 AM 32.0 °F 26.4 °F 32.0 °F 100% 29.89 in 2.5 mi SSE 5.8 mph - N/A   Overcast
6:34 AM 32.0 °F 26.4 °F 32.0 °F 100% 29.89 in 2.0 mi SSE 5.8 mph - N/A   Overcast
6:54 AM 32.0 °F 25.6 °F 32.0 °F 100% 29.87 in 1.8 mi SSE 6.9 mph - N/A   Overcast
7:14 AM 32.0 °F 25.6 °F 32.0 °F 100% 29.86 in 2.5 mi SSE 6.9 mph - N/A Snow Light Snow
7:34 AM 32.0 °F 25.6 °F 32.0 °F 100% 29.86 in 3.0 mi SSE 6.9 mph - N/A   Overcast
7:54 AM 32.0 °F 25.6 °F 32.0 °F 100% 29.85 in 3.0 mi SSE 6.9 mph - N/A   Overcast
8:14 AM 32.0 °F 24.8 °F 32.0 °F 100% 29.85 in 1.2 mi SSE 8.1 mph - N/A   Overcast
8:34 AM 33.8 °F 26.4 °F 33.8 °F 100% 29.84 in 1.2 mi SSE 9.2 mph - N/A   Overcast
8:54 AM 33.8 °F 27.0 °F 33.8 °F 100% 29.83 in 1.8 mi SSE 8.1 mph - N/A   Overcast
9:15 AM 33.8 °F 27.0 °F 33.8 °F 100% 29.82 in 2.0 mi South 8.1 mph - N/A Snow Light Snow
9:35 AM 33.8 °F 26.4 °F 33.8 °F 100% 29.81 in 3.0 mi South 9.2 mph - N/A   Overcast
9:55 AM 33.8 °F 26.4 °F 33.8 °F 100% 29.81 in 3.0 mi South 9.2 mph - N/A Rain Light Rain
10:15 AM 35.6 °F 28.0 °F 35.6 °F 100% 29.81 in 2.5 mi South 10.4 mph - N/A   Overcast
10:35 AM 35.6 °F 28.0 °F 35.6 °F 100% 29.81 in 2.0 mi SSW 10.4 mph 18.4 mph N/A   Overcast
10:52 AM 35.6 °F 27.5 °F 35.6 °F 100% 29.81 in 1.5 mi SSW 11.5 mph - N/A   Light Drizzle
11:12 AM 37.4 °F 30.8 °F 37.4 °F 100% 29.81 in 1.0 mi SW 9.2 mph - N/A   Overcast
11:32 AM 37.4 °F 30.3 °F 37.4 °F 100% 29.81 in 1.5 mi SW 10.4 mph - N/A   Overcast
11:52 AM 37.4 °F 30.8 °F 37.4 °F 100% 29.81 in 3.0 mi SW 9.2 mph - N/A   Overcast
12:12 PM 37.4 °F 32.1 °F 37.4 °F 100% 29.81 in 1.2 mi SW 6.9 mph - N/A   Overcast
12:32 PM 37.4 °F 32.8 °F 37.4 °F 100% 29.81 in 0.5 mi SW 5.8 mph - N/A Fog Fog
12:52 PM 41.0 °F 35.8 °F 41.0 °F 100% 29.81 in 1.5 mi WSW 8.1 mph - N/A   Overcast
1:32 PM 41.0 °F 34.3 °F 41.0 °F 100% 29.81 in 7.0 mi West 11.5 mph - N/A   Overcast
1:52 PM 39.2 °F 31.2 °F 39.2 °F 100% 29.81 in 7.0 mi West 13.8 mph - N/A   Overcast
2:12 PM 39.2 °F 32.5 °F 39.2 °F 100% 29.81 in 10.0 mi West 10.4 mph - N/A   Overcast
2:32 PM 37.4 °F 30.8 °F 37.4 °F 100% 29.82 in 10.0 mi West 9.2 mph - N/A   Overcast
2:53 PM 37.4 °F 31.4 °F 37.4 °F 100% 29.82 in 7.0 mi West 8.1 mph - N/A   Overcast
3:13 PM 37.4 °F 30.8 °F 37.4 °F 100% 29.84 in 7.0 mi West 9.2 mph - N/A   Overcast
3:33 PM 37.4 °F 30.8 °F 37.4 °F 100% 29.85 in 5.0 mi West 9.2 mph - N/A   Overcast
3:53 PM 37.4 °F 30.8 °F 37.4 °F 100% 29.86 in 3.0 mi WSW 9.2 mph - N/A   Overcast
4:13 PM 37.4 °F 30.8 °F 37.4 °F 100% 29.86 in 5.0 mi WSW 9.2 mph - N/A   Overcast
4:33 PM 37.4 °F 32.1 °F 37.4 °F 100% 29.87 in 7.0 mi WSW 6.9 mph - N/A   Overcast
4:53 PM 37.4 °F 32.1 °F 37.4 °F 100% 29.89 in 7.0 mi West 6.9 mph - N/A   Overcast
5:13 PM 37.4 °F 30.8 °F 37.4 °F 100% 29.90 in 10.0 mi West 9.2 mph - N/A   Overcast
5:33 PM 35.6 °F 29.2 °F 35.6 °F 100% 29.92 in 10.0 mi West 8.1 mph - N/A   Overcast
5:53 PM 35.6 °F 29.2 °F 35.6 °F 100% 29.93 in 10.0 mi West 8.1 mph - N/A   Overcast
6:13 PM 35.6 °F 29.9 °F 35.6 °F 100% 29.94 in 10.0 mi West 6.9 mph - N/A   Overcast
6:34 PM 35.6 °F 30.7 °F 35.6 °F 100% 29.94 in 10.0 mi West 5.8 mph - N/A   Overcast
6:54 PM 35.6 °F 31.7 °F 35.6 °F 100% 29.96 in 10.0 mi West 4.6 mph - N/A   Overcast
7:14 PM 35.6 °F 31.7 °F 35.6 °F 100% 29.97 in 10.0 mi WSW 4.6 mph - N/A   Overcast
7:34 PM 35.6 °F 29.9 °F 35.6 °F 100% 29.97 in 10.0 mi West 6.9 mph - N/A   Overcast
7:54 PM 35.6 °F 31.7 °F 35.6 °F 100% 29.98 in 10.0 mi West 4.6 mph - N/A   Overcast
8:14 PM 35.6 °F 31.7 °F 35.6 °F 100% 29.99 in 10.0 mi West 4.6 mph - N/A   Overcast
8:34 PM 35.6 °F 31.7 °F 35.6 °F 100% 29.99 in 10.0 mi West 4.6 mph - N/A   Overcast
8:54 PM 35.6 °F 32.8 °F 33.8 °F 93% 29.99 in 10.0 mi West 3.5 mph - N/A   Overcast
9:15 PM 35.6 °F 31.7 °F 35.6 °F 100% 29.99 in 10.0 mi West 4.6 mph - N/A   Overcast
9:35 PM 35.6 °F 32.8 °F 33.8 °F 93% 29.99 in 10.0 mi West 3.5 mph - N/A   Overcast
9:55 PM 35.6 °F 32.8 °F 33.8 °F 93% 30.00 in 10.0 mi West 3.5 mph - N/A   Overcast
10:15 PM 35.6 °F - 33.8 °F 93% 29.99 in 10.0 mi Calm Calm - N/A   Overcast
10:35 PM 35.6 °F - 33.8 °F 93% 29.99 in 10.0 mi Calm Calm - N/A   Overcast
10:55 PM 35.6 °F - 33.8 °F 93% 29.99 in 10.0 mi Calm Calm - N/A   Overcast
11:15 PM 33.8 °F - 33.8 °F 100% 30.00 in 10.0 mi Calm Calm - N/A   Overcast
11:35 PM 35.6 °F 31.7 °F 33.8 °F 93% 30.00 in 10.0 mi SSW 4.6 mph - N/A   Overcast
11:55 PM 35.6 °F - 33.8 °F 93% 30.00 in 10.0 mi Calm Calm - N/A   Overcast